Regional Weather Roundup
Issued by NWS Jackson, KY

Home | Current Version | Previous Version | Text Only | Print | Product List | Glossary On
Versions: 1 2 3 4 5 6 7 8 9 10 11 12 13 14 15 16 17 18 19 20 21 22 23 24 25 26 27 28 29 30 31 32 33 34 35 36 37 38 39 40 41 42 43 44 45 46 47 48 49 50
000
ASUS43 KJKL 190010
RWRJKL

EAST KENTUCKY HOURLY WEATHER ROUNDUP
NATIONAL WEATHER SERVICE JACKSON KY
700 PM EST THU JAN 18 2018

NOTE: "FAIR" INDICATES FEW OR NO CLOUDS BELOW 12,000 FEET WITH
NO SIGNIFICANT WEATHER AND/OR OBSTRUCTIONS TO VISIBILITY.

* THESE REPORTS ARE NOT UNDER NWS QUALITY CONTROL AND MAY NOT
  REPORT WEATHER SUCH AS PRECIPITATION AND FOG.

KYZ079-080-083-085-087-088-110-112-115-119-120-190100
...EASTERN KENTUCKY...

CITY           SKY/WX    TMP DP  RH WIND       PRES   REMARKS
JACKSON          N/A     26  12  55 VRB5      30.28F WCI  20
6HR MIN TEMP:  25; 6HR MAX TEMP:  31;

LONDON           N/A     24  15  68 CALM      30.32S
6HR MIN TEMP:  22; 6HR MAX TEMP:  31;

SOMERSET*        N/A     27  12  54 SW6       30.36S WCI  20
MONTICELLO*      N/A     18  10  71 VRB6      30.37R WCI  10
6HR MIN TEMP:  18; 6HR MAX TEMP:  33;

WILLIAMSBURG*    N/A     30  10  43 CALM      30.33R
MIDDLESBORO*     N/A     25  17  71 CALM      30.35S
6HR MIN TEMP:  24; 6HR MAX TEMP:  32;

HARLAN APT*      N/A     28  14  54 CALM      30.31S
PIKE CO APT*     N/A     28  11  49 SW3       30.28S
BIG SANDY APT*   N/A     29  11  48 CALM      30.30R
6HR MIN TEMP:  26; 6HR MAX TEMP:  32;

MOREHEAD APT*    N/A     27   9  46 SW10      30.30S WCI  17
ASHLAND*         N/A     25   9  50 VRB5      30.30S WCI  19
$$

KYZ035-036-041-042-044-050-067-078-099-190100
...CENTRAL KENTUCKY...

CITY           SKY/WX    TMP DP  RH WIND       PRES   REMARKS
MT STERLING*     N/A     27  14  59 SW9       30.30S WCI  17
FLEMING/MASON*   N/A     23  11  61 SW9       30.29S WCI  13
DANVILLE*        N/A     23  12  63 SW7       30.32S WCI  15
LEXINGTON        N/A     25  10  53 S10       30.29S WCI  15
6HR MIN TEMP:  23; 6HR MAX TEMP:  28;

FRANKFORT        N/A     25  11  55 SW9       30.28S WCI  15
6HR MIN TEMP:  24; 6HR MAX TEMP:  30;

LOUISVILLE       N/A     30  13  49 S8        30.30S WCI  22
6HR MIN TEMP:  27; 6HR MAX TEMP:  33;

LEBANON*         N/A     25  10  54 S9        30.32R WCI  15
GLASGOW*         N/A     26  14  60 SW5       30.34F WCI  21
BOWLING GREEN    N/A     25  15  66 CALM      30.35F
6HR MIN TEMP:  23; 6HR MAX TEMP:  30;

$$

KYZ091>093-OHZ055-061-077-WVZ005-015-034-035-042-190100
...SOUTHERN OHIO/WEST VIRGINIA...

CITY           SKY/WX    TMP DP  RH WIND       PRES   REMARKS
COVINGTON        N/A     27  14  58 S8        30.23R WCI  19
COLUMBUS         N/A     26  13  57 S9        30.20R WCI  17
DAYTON           N/A     27  15  61 S13       30.17S WCI  16
WILMINGTON       N/A     25  13  60 SW14      30.19S WCI  13
HUNTINGTON       N/A     28  10  46 S6        30.29R WCI  22
CHARLESTON       N/A     27  11  51 S7        30.29R WCI  19
BECKLEY          N/A     24   6  46 W7        30.20R WCI  16
BLUEFIELD        N/A     24   5  44 W10       30.18S WCI  14
LOGAN CO APT*    N/A     28  10  47 CALM      30.27R
$$

VAZ002-007-008-TNZ017-027-036-066-071-190100
...SOUTHWEST VIRGINIA/EAST TENNESSEE...

CITY           SKY/WX    TMP DP  RH WIND       PRES   REMARKS
WISE*            N/A     25  14  63 SW9       30.23S WCI  15
JONESVILLE*      N/A     25  16  68 CALM      30.35S
ABINGDON*        N/A     24  10  56 CALM      30.28S
BRISTOL          N/A     24  13  62 CALM      30.32S
MORRISTOWN*    CLEAR     25  12  58 S5        30.33S WCI  19
SEVIERVILLE*   CLEAR     25  10  54 CALM      30.36R
KNOXVILLE        N/A     29  11  47 CALM      30.35S
LAFOLLETTE*    CLEAR     27  14  59 CALM      30.38R
OAK RIDGE        N/A     28  14  55 CALM      30.37S
CROSSVILLE       N/A     27   8  44 SW5       30.32R WCI  22
NASHVILLE        N/A     29  15  56 S6        30.37F WCI  23
$$

...KEY TO REMARKS...
VSB - VISIBILITY IN MILES
WCI - WIND CHILL INDEX
HX  - HEAT INDEX

$$



USA.gov is the U.S. government's official web portal to all federal, state and local government web resources and services.